FW5182 Weather Reports


time (UTC)temp
F
wind
direction
speed
knots
gust
knots
rain 1hr
in
rain 24hr
in
rain mn
in
humidity
%
barometer
mb
20260506184517 49 0.0 0.0 0.00 0.00 0.00 38 1013.8
20260506183039 50 0.0 0.0 0.00 0.00 0.00 38 1013.8
20260506181542 50 0.0 0.0 0.00 0.00 0.00 36 1013.8
20260506180146 51 0.0 0.0 0.00 0.00 0.00 36 1013.5
20260506174546 51 0.0 0.0 0.00 0.00 0.00 36 1013.7
20260506173145 51 0.0 0.0 0.00 0.00 0.00 35 1013.7
20260506171542 52 0.0 0.0 0.00 0.00 0.00 35 1013.7
20260506170042 52 0.0 0.0 0.00 0.00 0.00 35 1013.4
20260506164644 53 0.0 0.0 0.00 0.00 0.00 35 1013.3
20260506161522 53 0.0 0.0 0.00 0.00 0.00 35 1013.5
20260506160022 53 0.0 0.0 0.00 0.00 0.00 35 1013.4
20260506154527 54 0.0 0.0 0.00 0.00 0.00 34 1013.4
20260506153032 54 0.0 0.0 0.00 0.00 0.00 34 1013.6
20260506150039 55 0.0 0.0 0.00 0.00 0.00 34 1013.7
20260506144544 55 0.0 0.0 0.00 0.00 0.00 34 1013.4
20260506143044 55 0.0 0.0 0.00 0.00 0.00 34 1013.5
20260506141542 55 0.0 0.0 0.00 0.00 0.00 34 1013.3
20260506140044 55 0.0 0.0 0.00 0.00 0.00 34 1013.4
20260506134542 56 0.0 0.0 0.00 0.00 0.00 34 1013.4
20260506133047 56 0.0 0.0 0.00 0.00 0.00 34 1013.4
20260506131547 56 0.0 0.0 0.00 0.00 0.00 34 1013.3
20260506130015 56 0.0 0.0 0.00 0.00 0.00 35 1013.2
20260506124519 55 0.0 0.0 0.00 0.00 0.00 35 1013.3
20260506123025 56 0.0 0.0 0.00 0.00 0.00 36 1013.2
20260506120030 56 0.0 0.0 0.00 0.00 0.00 35 1013.1
20260506113038 56 0.0 0.0 0.00 0.00 0.00 32 1013.2
20260506111647 56 0.0 0.0 0.00 0.00 0.00 32 1013.3
20260506110039 56 0.0 0.0 0.00 0.00 0.00 32 1013.1
20260506104545 55 0.0 0.0 0.00 0.00 0.00 32 1013.1
20260506103137 55 0.0 0.0 0.00 0.00 0.00 33 1013.1
20260506101544 55 0.0 0.0 0.00 0.00 0.00 33 1013.1
20260506100034 54 0.0 0.0 0.00 0.00 0.00 33 1013.0
20260506094543 54 0.0 0.0 0.00 0.00 0.00 33 1013.0
20260506093016 54 0.0 0.0 0.00 0.00 0.00 34 1012.9
20260506091520 55 0.0 0.0 0.00 0.00 0.00 34 1012.8
20260506083028 55 0.0 0.0 0.00 0.00 0.00 34 1012.9
20260506081536 57 0.0 0.0 0.00 0.00 0.00 36 1012.8
20260506073025 55 0.0 0.0 0.00 0.00 0.00 40 1012.4
20260506071547 56 0.0 0.0 0.00 0.00 0.00 40 1012.2
20260506061543 55 0.0 0.0 0.00 0.00 0.00 45 1011.9
20260506044544 44 0.0 0.0 0.00 0.00 0.00 56 1011.0
20260506043039 42 0.0 0.0 0.00 0.00 0.00 57 1010.8
20260506041544 40 0.0 0.0 0.00 0.00 0.00 58 1010.9
20260506040144 38 0.0 0.0 0.00 0.00 0.00 58 1010.6
20260506034644 37 0.0 0.0 0.00 0.00 0.00 58 1010.8
20260506033045 37 0.0 0.0 0.00 0.00 0.00 58 1010.6
20260506031549 37 0.0 0.0 0.00 0.00 0.00 57 1010.2
20260506030044 37 0.0 0.0 0.00 0.00 0.00 57 1010.1
20260506024543 37 0.0 0.0 0.00 0.00 0.00 57 1009.9
20260506023015 37 0.0 0.0 0.00 0.00 0.00 56 1009.8
20260506020028 37 0.0 0.0 0.00 0.00 0.00 56 1009.5
20260506014527 37 0.0 0.0 0.00 0.00 0.00 55 1009.4
20260506013032 38 0.0 0.0 0.00 0.00 0.00 55 1009.4
20260506011535 38 0.0 0.0 0.00 0.00 0.00 55 1009.0
20260506010040 38 0.0 0.0 0.00 0.00 0.00 54 1009.3
20260506004544 38 0.0 0.0 0.00 0.00 0.00 54 1009.1
20260506003043 38 0.0 0.0 0.00 0.00 0.00 54 1009.1
20260506001547 39 0.0 0.0 0.00 0.00 0.00 53 1008.9
20260506000052 39 0.0 0.0 0.00 0.00 0.00 53 1008.8
20260505234544 39 0.0 0.0 0.00 0.00 0.00 52 1008.7
20260505233043 40 0.0 0.0 0.00 0.00 0.00 51 1008.7
20260505231542 40 0.0 0.0 0.00 0.00 0.00 51 1008.6
20260505230015 40 0.0 0.0 0.00 0.00 0.00 50 1008.2
20260505224519 40 0.0 0.0 0.00 0.00 0.00 50 1008.1
20260505221530 41 0.0 0.0 0.00 0.00 0.00 48 1008.0
20260505220037 41 0.0 0.0 0.00 0.00 0.00 47 1008.1
20260505214537 42 0.0 0.0 0.00 0.00 0.00 46 1008.0
20260505213042 42 0.0 0.0 0.00 0.00 0.00 46 1007.9
20260505211535 43 0.0 0.0 0.00 0.00 0.00 45 1007.8
20260505204535 43 0.0 0.0 0.00 0.00 0.00 44 1007.3
20260505203042 44 0.0 0.0 0.00 0.00 0.00 43 1007.3
20260505201533 44 0.0 0.0 0.00 0.00 0.00 42 1007.0
20260505200047 45 0.0 0.0 0.00 0.00 0.00 42 1007.1
20260505194531 45 0.0 0.0 0.00 0.00 0.00 41 1006.8
20260505193044 45 0.0 0.0 0.00 0.00 0.00 40 1006.7
20260505191521 46 0.0 0.0 0.00 0.00 0.00 39 1006.5